Torna al catalogo

DELTA 1 DEB

AttivoPO
NORAD 42555·DEBRIS·🇺🇸 United States

Lanciato Jul 23, 1972 da Vandenberg Space Force Base

Loading…

Prossimi Passaggi (prossime 24 ore)

TLE

In scadenzaSource: Space-Track

Epoca: Sep 6, 2026, 12:03 UTC

1 42555U 72058JN  26249.50245428  .00000029  00000-0  45063-4 0  9999
2 42555  97.2150 141.2039 0539491 237.2587 117.5458 13.39747549624625

Traccia DELTA 1 DEB in tempo reale con AllMySat

Download on the App Store